User: anonymous   Login
Location: Cruquius
(52.3348°N, 4.6319°E)
Time: 03:47:50
(UTC+00:00)
Language:

Cosmos 1602 - Orbit

View from above orbital plane
View from above orbital plane
View from above satellite
View from above satellite

Ground track
Ground track

The orbit data is extracted from the following two-line orbital elements,

1 15331U 84105A   21207.74849799  .00000462  00000-0  23319-4 0  9994
2 15331  82.5385 293.0500 0015617 137.4554 222.7891 15.14420478  8852
Epoch (UTC): 26 July 2021 17:57:50
Eccentricity: 0.0015617
inclination: 82.5385°
perigee height: 512 km
apogee height: 533 km
right ascension of ascending node: 293.0500°
argument of perigee: 137.4554°
revolutions per day: 15.14420478
mean anomaly at epoch: 222.7891°
orbit number at epoch: 885

The dashed part of the orbit path shows where the satellite is in the earth's shadow,  

DLR